Location: La Comballaz
(46.3780°N, 7.0817°E)
Time: 18:10:20
(UTC+00:00)

STRAND 1 - Visible Passes

Search period start: 30 November 2022 00:00
Search period end: 10 December 2022 00:00
Orbit: 767 x 781 km, 98.4° (Epoch: 29 November)

Date Brightness Start Highest point End Pass type
(mag) Time Alt. Az. Time Alt. Az. Time Alt. Az.
30 Nov ? 03:36:54 10° ENE 03:38:17 11° NE 03:39:40 10° NE visible
30 Nov ? 05:11:25 10° SSE 05:16:30 67° ENE 05:21:36 10° N visible
30 Nov ? 17:25:44 14° ESE 17:25:44 14° ESE 17:26:59 10° SE visible
30 Nov ? 19:06:07 23° SW 19:06:07 23° SW 19:08:02 10° SSW visible
01 Dec ? 04:37:48 10° SE 04:42:24 35° ENE 04:47:01 10° N visible
01 Dec ? 06:16:57 10° SSW 06:21:34 33° W 06:26:12 10° NNW visible
01 Dec ? 18:31:26 29° S 18:31:26 29° S 18:33:52 10° S visible
02 Dec ? 04:04:56 10° ESE 04:08:29 19° ENE 04:12:01 10° NNE visible
02 Dec ? 05:42:03 10° S 05:47:09 67° WSW 05:52:16 10° NNW visible
02 Dec ? 17:56:44 23° SE 17:56:44 23° SE 17:59:00 10° SSE visible
02 Dec ? 19:37:07 15° WSW 19:37:07 15° WSW 19:38:03 10° SW visible
03 Dec ? 03:33:59 10° ENE 03:34:43 10° NE 03:35:28 10° NE visible
03 Dec ? 05:07:51 10° SSE 05:12:54 63° ENE 05:17:57 10° N visible
03 Dec ? 17:22:02 14° ESE 17:22:02 14° ESE 17:23:08 10° SE visible
03 Dec ? 19:02:25 25° SSW 19:02:25 25° SSW 19:04:27 10° SSW visible
04 Dec ? 04:34:17 10° SE 04:38:49 33° ENE 04:43:20 10° N visible
04 Dec ? 06:13:14 10° SSW 06:17:55 36° W 06:22:37 10° NNW visible
04 Dec ? 18:27:43 29° S 18:27:43 29° S 18:30:13 10° S visible
05 Dec ? 04:01:31 10° E 04:04:54 18° ENE 04:08:16 10° NNE visible
05 Dec ? 05:38:25 10° S 05:43:31 72° WSW 05:48:38 10° NNW visible
05 Dec ? 17:53:01 22° SE 17:53:01 22° SE 17:55:16 10° SSE visible
05 Dec ? 19:33:23 16° SW 19:33:23 16° SW 19:34:32 10° SW visible
06 Dec ? 05:04:17 10° SSE 05:09:17 59° ENE 05:14:19 10° N visible
06 Dec ? 17:18:18 13° ESE 17:18:18 13° ESE 17:19:16 10° SE visible
06 Dec ? 18:58:41 26° SSW 18:58:41 26° SSW 19:00:52 10° SSW visible
07 Dec ? 04:30:47 10° SE 04:35:13 31° ENE 04:39:39 10° N visible
07 Dec ? 06:09:31 10° SSW 06:14:17 38° W 06:19:03 10° NNW visible
07 Dec ? 18:23:57 30° S 18:23:57 30° S 18:26:33 10° S visible
08 Dec ? 03:58:07 10° E 04:01:19 17° ENE 04:04:31 10° NNE visible
08 Dec ? 05:34:46 10° S 05:39:53 77° WSW 05:45:01 10° NNW visible
08 Dec ? 17:49:14 22° SE 17:49:14 22° SE 17:51:31 10° SSE visible
08 Dec ? 19:29:37 18° SW 19:29:37 18° SW 19:30:59 10° SW visible
09 Dec ? 05:00:42 10° SSE 05:05:40 55° ENE 05:10:39 10° N visible
09 Dec ? 17:14:31 12° ESE 17:14:31 12° ESE 17:15:21 10° SE visible
09 Dec ? 18:54:54 28° SSW 18:54:54 28° SSW 18:57:15 10° SSW visible
